Breckenridge, TX

7:17 AM CST on February 23, 2018 (GMT -0600)
Stephens County

Weather History for KBKD - June, 2013

Change the Weather History Date:

Saturday, June 1, 2013

  Actual Average (KMWL) Record (KMWL)
Temperature  
Mean Temperature 80 °F -  
Max Temperature 88 °F 86 °F 102 °F (1998)
Min Temperature 72 °F 64 °F 59 °F (1997)
Cooling Degree Days 16    
Growing Degree Days 30 (Base 50)    
Moisture  
Dew Point 63 °F    
Average Humidity 52    
Maximum Humidity 75    
Minimum Humidity 30    
Precipitation  
Precipitation 0.00 in - - ()
Sea Level Pressure  
Sea Level Pressure 29.84 in    
Wind  
Wind Speed 15 mph (East)    
Max Wind Speed 23 mph    
Max Gust Speed 32 mph    
Visibility 10 miles    
Events      
Averages and records for this station are not official NWS values.
T = Trace of Precipitation, MM = Missing Value Source: NWS Daily Summary

Daily Weather History Graph

Daily Weather History Graph

Search for Another Location

Airport or City:

Trip Planner

Search our weather history database for the weather conditions in past years. The results will help you decide how hot, cold, wet, or windy it might be!

Date:

Astronomy

Jun. 01, 2013 Rise Set
Actual Time 6:28 AM CDT 8:38 PM CDT
Civil Twilight 6:00 AM CDT 9:06 PM CDT
Nautical Twilight 5:26 AM CDT 9:41 PM CDT
Astronomical Twilight 4:49 AM CDT 10:18 PM CDT
Moon 2:04 AM CDT (6/1) 2:28 PM CDT (6/1)
Length of Visible Light 15h 06m
Length of Day
14h 10m
Last Quarter, 40% of the Moon is Illuminated
Jun 1
Last Quarter
Jun 8
New
Jun 16
First Quarter
Jun 23
Full
Jun 29
Last Quarter

Hourly Weather History & Observations

Time (CDT) Temp. Heat Index Dew Point Humidity Pressure Visibility Wind Dir Wind Speed Gust Speed Precip Events Conditions
12:15 AM 85.3 °F 89.8 °F 70.0 °F 60% 29.68 in 10.0 mi South 18.4 mph 26.5 mph N/A   Clear
12:35 AM 85.1 °F 89.8 °F 70.2 °F 61% 29.68 in 10.0 mi South 20.7 mph 29.9 mph N/A   Clear
12:55 AM 84.9 °F 89.4 °F 70.2 °F 61% 29.68 in 10.0 mi South 21.9 mph 26.5 mph N/A   Clear
1:15 AM 84.6 °F 88.8 °F 69.8 °F 61% 29.68 in 10.0 mi South 19.6 mph 29.9 mph N/A   Clear
1:35 AM 84.2 °F 88.1 °F 69.4 °F 61% 29.68 in 10.0 mi South 19.6 mph 31.1 mph N/A   Clear
1:55 AM 83.5 °F 87.2 °F 69.3 °F 62% 29.69 in 10.0 mi South 20.7 mph 27.6 mph N/A   Clear
2:15 AM 82.9 °F 86.7 °F 69.6 °F 64% 29.68 in 10.0 mi South 18.4 mph 32.2 mph N/A   Clear
2:35 AM 82.4 °F 86.3 °F 70.0 °F 66% 29.68 in 10.0 mi South 18.4 mph 29.9 mph N/A   Clear
2:55 AM 81.7 °F 85.4 °F 70.3 °F 68% 29.67 in 10.0 mi South 20.7 mph 27.6 mph N/A   Clear
3:15 AM 81.3 °F 85.2 °F 70.7 °F 70% 29.67 in 10.0 mi South 23.0 mph 29.9 mph N/A   Clear
3:35 AM 80.6 °F 84.4 °F 71.1 °F 73% 29.68 in 10.0 mi South 18.4 mph 31.1 mph N/A   Clear
3:55 AM 80.2 °F 83.7 °F 71.1 °F 73% 29.68 in 10.0 mi South 19.6 mph 28.8 mph N/A   Clear
4:15 AM 79.9 °F - 71.1 °F 74% 29.68 in 10.0 mi South 17.3 mph 29.9 mph N/A   Clear
4:35 AM 79.7 °F - 70.9 °F 74% 29.68 in 10.0 mi South 17.3 mph 24.2 mph N/A   Clear
4:55 AM 79.3 °F - 70.9 °F 75% 29.68 in 10.0 mi South 20.7 mph 26.5 mph N/A   Clear
5:15 AM 79.3 °F - 70.7 °F 75% 29.69 in 10.0 mi South 17.3 mph 26.5 mph N/A   Clear
5:35 AM 80.1 °F 83.6 °F 71.1 °F 74% 29.75 in 10.0 mi Calm Calm - N/A   Mostly Cloudy
5:55 AM 80.6 °F 84.2 °F 70.9 °F 72% 29.77 in 10.0 mi West 4.6 mph 16.1 mph N/A   Overcast
6:15 AM 81.0 °F 84.7 °F 70.7 °F 71% 29.76 in 10.0 mi SW 8.1 mph 17.3 mph N/A   Overcast
6:35 AM 80.8 °F 84.4 °F 70.7 °F 71% 29.77 in 10.0 mi SSW 6.9 mph - N/A   Overcast
6:55 AM 80.6 °F 84.2 °F 70.7 °F 72% 29.77 in 10.0 mi SSW 11.5 mph - N/A   Mostly Cloudy
7:15 AM 81.0 °F 84.7 °F 70.7 °F 71% 29.77 in 10.0 mi SSW 9.2 mph - N/A   Scattered Clouds
7:35 AM 81.5 °F 85.3 °F 70.5 °F 69% 29.79 in 10.0 mi SW 10.4 mph - N/A   Mostly Cloudy
7:55 AM 81.5 °F 85.3 °F 70.5 °F 69% 29.80 in 10.0 mi SW 9.2 mph - N/A   Overcast
8:15 AM 82.2 °F 86.2 °F 70.3 °F 67% 29.81 in 10.0 mi SW 9.2 mph - N/A   Overcast
8:35 AM 82.6 °F 86.6 °F 70.0 °F 66% 29.81 in 10.0 mi SW 13.8 mph - N/A   Overcast
8:55 AM 83.1 °F 86.8 °F 69.4 °F 63% 29.81 in 10.0 mi SSW 15.0 mph - N/A   Overcast
9:15 AM 83.5 °F 87.2 °F 69.4 °F 62% 29.82 in 10.0 mi SW 11.5 mph 18.4 mph N/A   Overcast
9:35 AM 84.4 °F 88.5 °F 69.4 °F 61% 29.83 in 10.0 mi SW 12.7 mph - N/A   Mostly Cloudy
9:55 AM 84.2 °F 88.1 °F 69.4 °F 61% 29.83 in 10.0 mi SW 8.1 mph - N/A   Overcast
10:15 AM 84.6 °F 88.8 °F 69.6 °F 61% 29.83 in 10.0 mi SW 10.4 mph - N/A   Overcast
10:35 AM 84.4 °F 88.5 °F 69.4 °F 61% 29.84 in 10.0 mi West 9.2 mph - N/A   Overcast
10:55 AM 84.2 °F 87.1 °F 67.5 °F 57% 29.85 in 10.0 mi NW 9.2 mph - N/A   Overcast
11:15 AM 84.0 °F 86.5 °F 66.9 °F 56% 29.86 in 10.0 mi NNW 10.4 mph 20.7 mph N/A   Overcast
11:35 AM 83.5 °F 86.0 °F 66.7 °F 57% 29.87 in 10.0 mi NNW 8.1 mph - N/A   Overcast
11:55 AM 84.7 °F 87.1 °F 66.2 °F 54% 29.88 in 10.0 mi North 10.4 mph - N/A   Overcast
12:15 PM 85.5 °F 87.1 °F 65.1 °F 50% 29.88 in 10.0 mi North 18.4 mph 27.6 mph N/A   Mostly Cloudy
12:35 PM 83.8 °F 84.1 °F 61.0 °F 46% 29.90 in 10.0 mi NE 19.6 mph 28.8 mph N/A   Mostly Cloudy
12:55 PM 84.0 °F 84.2 °F 60.4 °F 45% 29.90 in 10.0 mi NNE 16.1 mph 27.6 mph N/A   Mostly Cloudy
1:15 PM 85.1 °F 85.2 °F 61.2 °F 44% 29.91 in 10.0 mi NNE 18.4 mph 26.5 mph N/A   Scattered Clouds
1:35 PM 85.6 °F 85.9 °F 61.7 °F 44% 29.91 in 10.0 mi NE 19.6 mph 24.2 mph N/A   Scattered Clouds
1:55 PM 85.6 °F 86.1 °F 61.9 °F 45% 29.92 in 10.0 mi NNE 15.0 mph 21.9 mph N/A   Mostly Cloudy
2:15 PM 85.1 °F 85.7 °F 62.1 °F 46% 29.91 in 10.0 mi North 16.1 mph 24.2 mph N/A   Mostly Cloudy
2:35 PM 85.3 °F 85.9 °F 62.4 °F 46% 29.91 in 10.0 mi NE 13.8 mph 26.5 mph N/A   Scattered Clouds
2:55 PM 86.2 °F 86.1 °F 60.8 °F 42% 29.91 in 10.0 mi North 15.0 mph 21.9 mph N/A   Clear
3:15 PM 85.1 °F 85.0 °F 60.4 °F 43% 29.91 in 10.0 mi NNE 11.5 mph 21.9 mph N/A   Scattered Clouds
3:35 PM 86.2 °F 85.9 °F 60.3 °F 41% 29.91 in 10.0 mi NE 16.1 mph 19.6 mph N/A   Scattered Clouds
3:55 PM 86.5 °F 85.6 °F 58.5 °F 38% 29.91 in 10.0 mi NNE 12.7 mph 21.9 mph N/A   Clear
4:15 PM 87.1 °F 85.7 °F 56.3 °F 35% 29.91 in 10.0 mi NNE 12.7 mph 20.7 mph N/A   Clear
4:35 PM 87.1 °F 85.7 °F 56.1 °F 35% 29.90 in 10.0 mi NE 12.7 mph 19.6 mph N/A   Clear
4:55 PM 87.3 °F 85.7 °F 55.4 °F 34% 29.91 in 10.0 mi ENE 9.2 mph 18.4 mph N/A   Clear
5:15 PM 88.0 °F 86.1 °F 55.0 °F 32% 29.91 in 10.0 mi NE 12.7 mph 21.9 mph N/A   Clear
5:35 PM 87.6 °F 85.9 °F 55.2 °F 33% 29.91 in 10.0 mi NE 16.1 mph 23.0 mph N/A   Clear
5:55 PM 87.6 °F 85.7 °F 54.7 °F 32% 29.91 in 10.0 mi NE 13.8 mph 18.4 mph N/A   Clear
6:15 PM 87.6 °F 85.9 °F 55.4 °F 33% 29.91 in 10.0 mi NE 13.8 mph 17.3 mph N/A   Clear
6:35 PM 86.9 °F 85.1 °F 54.3 °F 33% 29.91 in 10.0 mi ENE 15.0 mph 20.7 mph N/A   Clear
6:55 PM 86.5 °F 84.6 °F 53.1 °F 32% 29.91 in 10.0 mi ENE 18.4 mph 21.9 mph N/A   Clear
7:15 PM 86.0 °F - 52.3 °F 31% 29.91 in 10.0 mi NE 13.8 mph 19.6 mph N/A   Clear
7:35 PM 85.1 °F - 50.7 °F 30% 29.92 in 10.0 mi ENE 12.7 mph 20.7 mph N/A   Clear
7:55 PM 84.2 °F - 51.4 °F 32% 29.93 in 10.0 mi NE 12.7 mph 18.4 mph N/A   Clear
8:15 PM 83.3 °F - 51.1 °F 33% 29.94 in 10.0 mi NE 11.5 mph - N/A   Clear
8:35 PM 81.9 °F - 51.8 °F 35% 29.95 in 10.0 mi ENE 10.4 mph - N/A   Clear
8:55 PM 80.6 °F - 51.3 °F 36% 29.96 in 10.0 mi ENE 9.2 mph - N/A   Clear
9:15 PM 79.7 °F - 50.9 °F 37% 29.97 in 10.0 mi NE 6.9 mph - N/A   Clear
9:35 PM 78.8 °F - 49.6 °F 36% 29.97 in 10.0 mi ENE 6.9 mph - N/A   Clear
9:55 PM 77.5 °F - 49.6 °F 37% 29.98 in 10.0 mi ENE 4.6 mph - N/A   Clear
10:15 PM 76.5 °F - 50.0 °F 39% 29.99 in 10.0 mi East 5.8 mph - N/A   Clear
10:35 PM 75.7 °F - 50.4 °F 41% 30.00 in 10.0 mi ENE 5.8 mph - N/A   Clear
10:55 PM 74.8 °F - 50.7 °F 43% 29.99 in 10.0 mi ENE 5.8 mph - N/A   Clear
11:15 PM 73.8 °F - 50.9 °F 45% 29.99 in 10.0 mi ENE 4.6 mph - N/A   Clear
11:35 PM 73.0 °F - 51.1 °F 46% 29.99 in 10.0 mi ENE 4.6 mph - N/A   Clear
11:55 PM 72.5 °F - 51.3 °F 47% 30.00 in 10.0 mi East 3.5 mph - N/A   Clear